Regional Weather Roundup
Issued by NWS

Home | Current Version | Previous Version | Graphics & Text | Print | Product List | Glossary Off
Versions: 1 2 3 4 5 6 7 8 9 10 11 12 13 14 15 16 17 18 19 20 21 22 23 24 25 26 27

000
ASUS45 KCYS 170410
RWRWY

WYOMING REGIONAL WEATHER ROUNDUP
NATIONAL WEATHER SERVICE CHEYENNE WY
1000 PM MDT WED APR 16 2014

NOTE:  "FAIR" INDICATES FEW OR NO CLOUDS BELOW 12,000 FEET
WITH NO SIGNIFICANT WEATHER AND/OR OBSTRUCTIONS TO VISIBILITY.

WYZ001-170500-
YELLOWSTONE NATIONAL PARK

CITY           SKY/WX    TMP DP  RH WIND       PRES   REMARKS
LK YELLOWSTONE   N/A     29  14  53 W7        30.04R WCI  22
W YELLOWSTONE  NOT AVBL

$$
WYZ002>013-054>058-071-098>099-170500-
NORTHERN WYOMING

CITY           SKY/WX    TMP DP  RH WIND       PRES   REMARKS
JACKSON        PTCLDY    34  19  55 CALM      30.03R
CODY           PTCLDY    34  28  80 N5        30.02S WCI  30
GREYBULL       PTCLDY    42  30  62 NW9       30.01R
WORLAND        PTCLDY    39  31  72 SE10      30.01R WCI  32
SHERIDAN       RAIN      38  32  79 W7        30.07R WCI  33
BUFFALO        CLOUDY    32  27  81 SE8       30.04F WCI  25
GILLETTE       PTCLDY    32  29  88 SW3       30.06S
HULETT         FAIR      32  28  86 E13G21    30.08  WCI  22
NEWCASTLE      MOCLDY    32  32 100 SE9       30.10  WCI  24

$$
WYZ014>020-022>026-101>103-170500-
CENTRAL WYOMING

CITY           SKY/WX    TMP DP  RH WIND       PRES   REMARKS
BIG PINEY      PTCLDY    31  14  49 N12       30.05R WCI  22
PINEDALE       PTCLDY    30  21  69 CALM      30.06R
DUBOIS         FAIR      28  18  64 W5        30.02R WCI  23
LANDER         MOCLDY    40  22  48 W6        30.02R
RIVERTON       PTCLDY    36  28  73 E10       30.02R WCI  28
CASPER         PTCLDY    34  30  85 E10       30.06R WCI  26
DOUGLAS        CLOUDY    33  30  88 E5        30.09R WCI  29

$$
WYZ021-027>030-104>119-170500-
SOUTHERN WYOMING

CITY           SKY/WX    TMP DP  RH WIND       PRES   REMARKS
EVANSTON       CLEAR     37  12  35 W10       30.05R WCI  30
KEMMERER       CLEAR     34  18  51 NW6       30.06R WCI  29
FORT BRIDGER   FAIR      35  11  36 W7        30.08R WCI  30
ROCK SPRINGS   PTCLDY    36   9  32 NW7       30.03R WCI  30
DIXON          FAIR      33  22  65 NE5       30.03R WCI  28
RAWLINS        CLEAR     29  10  45 VRB3      30.01R
SARATOGA       FAIR      32  14  47 CALM      30.01R
LARAMIE        MOCLDY    31  25  78 SE14      30.04R WCI  21
CHEYENNE       CLOUDY    34  29  82 SW9       30.08R WCI  27
TORRINGTON     PTCLDY    37  31  78 E12       30.09R WCI  29
PINE BLUFFS    CLOUDY    37  30  75 SE5       30.10R WCI  34

$$



USA.gov is the U.S. government's official web portal to all federal, state and local government web resources and services.